Notices

What's New in latest Release from April 7th, 2021:

- Updated Glossary, including Speed of Maximum Gust, and Total Hourly Precipitation

- Updated national and regional climate services offices contacts and prices information

- Addition of station inventory lists for 1981-2010, 1971-2000, and 1961-1990 Normals.

If you haven't already, please take our survey and provide feedback about our website: https://eccc.sondage-survey.ca/f/LanguageSelection.aspx?s=442ca660-fcf1-47c0-95a9-59707d6fd709

Hourly Data Report for July 05, 2018

OTTAWA INTL A
ONTARIO
Current Station Operator: NAVCAN

45°19'00.000" N
75°40'00.000" W
114.90 m
6106001
71628
YOW

Download Data

Hourly Data (July 2018)
Hourly Data Report for July 5, 2018
TIME
LST
Temp Definition
°C
Dew Point Definition
°C
Rel Hum Definition
%
Precip. Amount Definition
mm

Wind Dir Definition
10's deg

Wind Spd Definition
km/h
Visibility Definition
km
Stn Press Definition
kPa
Hmdx Definition


Wind Chill Definition


Weather Definition


00:00 24.5 18.7 70   20 6 24.1 100.97 31   LegendNANA
01:00 23.2 18.8 76   18 8 24.1 100.92 30   Clear
02:00 22.0 18.8 82   19 8 24.1 100.89 29   LegendNANA
03:00 21.6 18.7 83   23 5 24.1 100.88 28   LegendNANA
04:00 21.4 18.5 83   22 5 24.1 100.89 28   Mainly Clear
05:00 21.2 18.6 85   36 3 24.1 100.90 28   LegendNANA
06:00 23.5 19.3 77   36 3 24.1 100.93 31   LegendNANA
07:00 25.5 20.6 74   19 10 24.1 100.92 34   Mainly Clear
08:00 26.5 21.4 73   20 16 24.1 100.90 35   LegendNANA
09:00 28.4 22.3 69   19 12 24.1 100.85 38   LegendNANA
10:00 30.2 22.6 63   15 8 24.1 100.76 40   Mainly Clear
11:00 31.5 22.8 59   17 12 24.1 100.68 42   LegendNANA
12:00 32.4 23.6 59   20 18 24.1 100.60 43   LegendNANA
13:00 34.5 23.1 51   21 17 24.1 100.51 45   Mostly Cloudy
14:00 32.8 22.2 53   20 24 24.1 100.44 42   LegendNANA
15:00 34.0 21.7 48   22 21 24.1 100.34 43   LegendNANA
16:00 32.9 22.1 52   19 28 24.1 100.21 42   Mainly Clear
17:00 32.9 22.4 54   21 23 24.1 100.12 43   LegendNANA
18:00 31.1 21.7 57   22 20 24.1 100.09 40   LegendNANA
19:00 29.9 21.6 61   20 18 24.1 100.10 39   Mostly Cloudy
20:00 28.8 21.1 63   21 17 24.1 100.03 37   Rain Showers
21:00 28.1 22.0 69   22 14 24.1 100.07 37   LegendNANA
22:00 27.7 22.4 72   23 16 24.1 99.99 37   Cloudy
23:00 27.1 22.6 76   23 15 24.1 99.92 37   LegendNANA

Notes on Data Quality.

Legend

  • E = Estimated
  • M = Missing
  • NA = Not Available*
  • [empty] = Indicates an unobserved value
Date modified: